| time (UTC) | temp F | wind direction | speed MPH | gust MPH | rain 1hr in | rain 24hr in | rain mn in | humidity % | barometer mb |
| 20260831112004 | 74 | 281 | 0.0 | 1.0 | 0.00 | 0.23 | 0.00 | 72 | 1014.0 |
| 20260831111504 | 74 | 281 | 0.0 | 3.0 | 0.00 | 0.23 | 0.00 | 71 | 1013.9 |
| 20260831110503 | 74 | 257 | 0.0 | 2.0 | 0.00 | 0.23 | 0.00 | 72 | 1013.8 |
| 20260831105502 | 74 | 257 | 0.0 | 0.0 | 0.00 | 0.23 | 0.00 | 71 | 1013.8 |
| 20260831105004 | 74 | 257 | 0.0 | 0.0 | 0.00 | 0.23 | 0.00 | 71 | 1013.8 |
| 20260831104503 | 74 | 257 | 0.0 | 4.0 | 0.00 | 0.23 | 0.00 | 71 | 1013.7 |
| 20260831104005 | 74 | 257 | 0.0 | 4.0 | 0.00 | 0.23 | 0.00 | 71 | 1013.8 |
| 20260831103501 | 74 | 264 | 0.0 | 0.0 | 0.00 | 0.23 | 0.00 | 71 | 1013.7 |
| 20260831103005 | 74 | 264 | 0.0 | 1.0 | 0.00 | 0.23 | 0.00 | 71 | 1013.7 |
| 20260831102503 | 74 | 264 | 0.0 | 1.0 | 0.00 | 0.23 | 0.00 | 71 | 1013.8 |
| 20260831101503 | 74 | 275 | 0.0 | 1.0 | 0.00 | 0.23 | 0.00 | 72 | 1013.8 |
| 20260831101004 | 74 | 266 | 0.0 | 1.0 | 0.00 | 0.23 | 0.00 | 72 | 1013.7 |
| 20260831100504 | 74 | 265 | 0.0 | 1.0 | 0.00 | 0.23 | 0.00 | 73 | 1013.7 |
| 20260831100004 | 74 | 248 | 0.0 | 0.0 | 0.00 | 0.23 | 0.00 | 73 | 1013.7 |
| 20260831095503 | 74 | 248 | 0.0 | 1.0 | 0.00 | 0.23 | 0.00 | 73 | 1013.6 |
| 20260831095003 | 74 | 248 | 0.0 | 1.0 | 0.00 | 0.23 | 0.00 | 74 | 1013.6 |
| 20260831094504 | 74 | 250 | 0.0 | 1.0 | 0.00 | 0.23 | 0.00 | 74 | 1013.6 |
| 20260831094004 | 74 | 250 | 0.0 | 0.0 | 0.00 | 0.23 | 0.00 | 74 | 1013.6 |
| 20260831093503 | 74 | 250 | 0.0 | 0.0 | 0.00 | 0.23 | 0.00 | 74 | 1013.6 |
| 20260831093004 | 74 | 249 | 0.0 | 3.0 | 0.00 | 0.23 | 0.00 | 74 | 1013.8 |
| 20260831092504 | 74 | 249 | 0.0 | 3.0 | 0.00 | 0.23 | 0.00 | 74 | 1013.8 |
| 20260831092004 | 74 | 64 | 0.0 | 0.0 | 0.00 | 0.23 | 0.00 | 74 | 1013.7 |
| 20260831091503 | 74 | 64 | 0.0 | 0.0 | 0.00 | 0.23 | 0.00 | 74 | 1013.7 |
| 20260831090502 | 74 | 64 | 0.0 | 1.0 | 0.00 | 0.23 | 0.00 | 75 | 1013.9 |
| 20260831090004 | 73 | 64 | 0.0 | 1.0 | 0.00 | 0.23 | 0.00 | 76 | 1014.0 |
| 20260831085503 | 73 | 64 | 0.0 | 1.0 | 0.00 | 0.23 | 0.00 | 77 | 1013.9 |
| 20260831085003 | 73 | 65 | 0.0 | 1.0 | 0.00 | 0.23 | 0.00 | 78 | 1013.9 |
| 20260831084004 | 73 | 71 | 0.0 | 0.0 | 0.00 | 0.23 | 0.00 | 79 | 1013.9 |
| 20260831083503 | 73 | 71 | 0.0 | 0.0 | 0.00 | 0.23 | 0.00 | 79 | 1014.0 |
| 20260831083004 | 73 | 71 | 0.0 | 0.0 | 0.00 | 0.23 | 0.00 | 79 | 1013.9 |
| 20260831082503 | 73 | 71 | 0.0 | 0.0 | 0.00 | 0.23 | 0.00 | 80 | 1014.0 |
| 20260831082004 | 73 | 71 | 0.0 | 0.0 | 0.00 | 0.23 | 0.00 | 80 | 1013.9 |
| 20260831081504 | 73 | 71 | 0.0 | 0.0 | 0.00 | 0.23 | 0.00 | 80 | 1013.9 |
| 20260831081004 | 73 | 71 | 0.0 | 0.0 | 0.00 | 0.23 | 0.00 | 81 | 1013.9 |
| 20260831080502 | 73 | 71 | 0.0 | 0.0 | 0.00 | 0.23 | 0.00 | 81 | 1013.8 |
| 20260831080004 | 73 | 71 | 0.0 | 0.0 | 0.00 | 0.23 | 0.00 | 81 | 1013.9 |
| 20260831075003 | 73 | 71 | 0.0 | 0.0 | 0.00 | 0.23 | 0.00 | 82 | 1013.9 |
| 20260831074500 | 73 | 71 | 0.0 | 0.0 | 0.00 | 0.23 | 0.00 | 82 | 1014.0 |
| 20260831074004 | 73 | 71 | 0.0 | 0.0 | 0.00 | 0.23 | 0.00 | 82 | 1013.9 |
| 20260831073459 | 73 | 71 | 0.0 | 0.0 | 0.00 | 0.23 | 0.00 | 82 | 1014.0 |
| 20260831073003 | 73 | 71 | 0.0 | 0.0 | 0.00 | 0.23 | 0.00 | 82 | 1014.1 |
| 20260831072500 | 73 | 71 | 0.0 | 0.0 | 0.00 | 0.23 | 0.00 | 82 | 1014.1 |
| 20260831072004 | 73 | 71 | 0.0 | 0.0 | 0.00 | 0.23 | 0.00 | 82 | 1014.1 |
| 20260831071501 | 73 | 71 | 0.0 | 0.0 | 0.00 | 0.23 | 0.00 | 82 | 1014.0 |
| 20260831071003 | 73 | 71 | 0.0 | 0.0 | 0.00 | 0.23 | 0.00 | 82 | 1014.0 |
| 20260831070500 | 73 | 71 | 0.0 | 0.0 | 0.00 | 0.23 | 0.00 | 83 | 1014.1 |
| 20260831065503 | 73 | 71 | 0.0 | 0.0 | 0.00 | 0.23 | 0.00 | 84 | 1014.1 |
| 20260831065004 | 73 | 71 | 0.0 | 0.0 | 0.00 | 0.23 | 0.00 | 85 | 1014.1 |
| 20260831064504 | 72 | 71 | 0.0 | 0.0 | 0.00 | 0.23 | 0.00 | 85 | 1014.2 |
| 20260831063007 | 72 | 71 | 0.0 | 1.0 | 0.00 | 0.23 | 0.00 | 87 | 1014.3 |
| 20260831062503 | 72 | 71 | 0.0 | 1.0 | 0.00 | 0.23 | 0.00 | 87 | 1014.2 |
| 20260831062004 | 72 | 71 | 0.0 | 0.0 | 0.00 | 0.23 | 0.00 | 88 | 1014.2 |
| 20260831060501 | 72 | 71 | 0.0 | 0.0 | 0.00 | 0.23 | 0.00 | 87 | 1014.2 |
| 20260831060007 | 72 | 71 | 0.0 | 0.0 | 0.00 | 0.23 | 0.00 | 88 | 1014.3 |
| 20260831055506 | 72 | 71 | 0.0 | 1.0 | 0.00 | 0.23 | 0.00 | 87 | 1014.1 |
| 20260831055007 | 73 | 71 | 0.0 | 1.0 | 0.00 | 0.23 | 0.00 | 87 | 1014.2 |
| 20260831054504 | 73 | 71 | 0.0 | 1.0 | 0.00 | 0.23 | 0.00 | 87 | 1014.1 |
| 20260831054008 | 73 | 71 | 0.0 | 1.0 | 0.00 | 0.23 | 0.00 | 87 | 1014.1 |
| 20260831053506 | 73 | 71 | 0.0 | 0.0 | 0.00 | 0.23 | 0.00 | 86 | 1014.1 |
| 20260831053005 | 73 | 71 | 0.0 | 1.0 | 0.00 | 0.23 | 0.00 | 86 | 1014.0 |
| 20260831052503 | 73 | 71 | 0.0 | 1.0 | 0.00 | 0.23 | 0.00 | 86 | 1013.9 |
| 20260831052007 | 74 | 71 | 0.0 | 2.0 | 0.00 | 0.23 | 0.00 | 85 | 1014.1 |
| 20260831051506 | 74 | 74 | 0.0 | 2.0 | 0.00 | 0.23 | 0.00 | 84 | 1014.0 |
| 20260831051008 | 75 | 217 | 0.0 | 1.0 | 0.00 | 0.23 | 0.00 | 83 | 1013.9 |
| 20260831050504 | 75 | 246 | 0.0 | 2.0 | 0.00 | 0.23 | 0.00 | 81 | 1013.6 |
| 20260831050007 | 75 | 176 | 0.0 | 2.0 | 0.00 | 0.23 | 0.23 | 82 | 1013.4 |
| 20260831045504 | 74 | 256 | 0.0 | 4.0 | 0.00 | 0.23 | 0.23 | 83 | 1013.4 |
| 20260831045004 | 74 | 255 | 0.0 | 4.0 | 0.00 | 0.23 | 0.23 | 84 | 1013.4 |
| 20260831044503 | 74 | 281 | 0.0 | 1.0 | 0.00 | 0.23 | 0.23 | 85 | 1013.6 |
| 20260831044007 | 74 | 281 | 0.0 | 1.0 | 0.00 | 0.23 | 0.23 | 85 | 1013.6 |
| 20260831043504 | 74 | 281 | 0.0 | 1.0 | 0.00 | 0.23 | 0.23 | 86 | 1013.8 |
| 20260831043004 | 74 | 281 | 0.0 | 0.0 | 0.00 | 0.23 | 0.23 | 88 | 1013.8 |
| 20260831042503 | 73 | 281 | 0.0 | 2.0 | 0.00 | 0.23 | 0.23 | 89 | 1013.9 |
| 20260831041503 | 73 | 279 | 0.0 | 1.0 | 0.01 | 0.23 | 0.23 | 91 | 1014.0 |
| 20260831041003 | 73 | 279 | 0.0 | 1.0 | 0.01 | 0.23 | 0.23 | 91 | 1014.2 |
| 20260831040502 | 73 | 279 | 0.0 | 1.0 | 0.01 | 0.23 | 0.23 | 92 | 1014.2 |
| 20260831040007 | 73 | 279 | 0.0 | 1.0 | 0.02 | 0.23 | 0.23 | 92 | 1014.3 |
| 20260831035504 | 73 | 280 | 0.0 | 0.0 | 0.02 | 0.23 | 0.23 | 92 | 1014.6 |
| 20260831035004 | 73 | 280 | 0.0 | 0.0 | 0.02 | 0.23 | 0.23 | 92 | 1014.6 |
| 20260831034504 | 73 | 280 | 0.0 | 0.0 | 0.02 | 0.23 | 0.23 | 93 | 1014.6 |
| 20260831034004 | 73 | 280 | 0.0 | 0.0 | 0.02 | 0.23 | 0.23 | 93 | 1014.9 |
| 20260831033004 | 73 | 280 | 0.0 | 0.0 | 0.02 | 0.23 | 0.23 | 93 | 1015.1 |
| 20260831032504 | 73 | 280 | 0.0 | 0.0 | 0.02 | 0.23 | 0.23 | 93 | 1015.2 |
| 20260831031504 | 73 | 280 | 0.0 | 0.0 | 0.01 | 0.22 | 0.22 | 93 | 1015.3 |
| 20260831031004 | 73 | 280 | 0.0 | 0.0 | 0.01 | 0.22 | 0.22 | 93 | 1015.6 |
| 20260831030504 | 73 | 280 | 0.0 | 0.0 | 0.02 | 0.22 | 0.22 | 93 | 1015.6 |
| 20260831025504 | 73 | 280 | 0.0 | 0.0 | 0.01 | 0.21 | 0.21 | 92 | 1015.9 |
| 20260831025005 | 73 | 280 | 0.0 | 0.0 | 0.01 | 0.21 | 0.21 | 92 | 1015.7 |
| 20260831024504 | 73 | 280 | 0.0 | 0.0 | 0.01 | 0.21 | 0.21 | 92 | 1015.7 |
| 20260831024006 | 73 | 280 | 0.0 | 0.0 | 0.01 | 0.21 | 0.21 | 92 | 1015.8 |
| 20260831023504 | 73 | 280 | 0.0 | 0.0 | 0.01 | 0.21 | 0.21 | 92 | 1015.6 |
| 20260831023005 | 73 | 280 | 0.0 | 0.0 | 0.01 | 0.21 | 0.21 | 92 | 1015.6 |
| 20260831022515 | 73 | 280 | 0.0 | 0.0 | 0.01 | 0.21 | 0.21 | 92 | 1015.7 |
| 20260831022230 | 73 | 280 | 0.0 | 0.0 | 0.01 | 0.21 | 0.21 | 92 | 1015.7 |
| 20260831021504 | 73 | 280 | 0.0 | 0.0 | 0.01 | 0.21 | 0.21 | 92 | 1015.6 |
| 20260831021004 | 73 | 280 | 0.0 | 1.0 | 0.01 | 0.21 | 0.21 | 92 | 1015.5 |
| 20260831020504 | 73 | 280 | 0.0 | 1.0 | 0.00 | 0.20 | 0.20 | 92 | 1015.6 |
| 20260831020004 | 73 | 280 | 0.0 | 0.0 | 0.00 | 0.20 | 0.20 | 92 | 1015.4 |
| 20260831015504 | 73 | 280 | 0.0 | 0.0 | 0.00 | 0.20 | 0.20 | 92 | 1015.6 |
| 20260831015004 | 73 | 280 | 0.0 | 0.0 | 0.00 | 0.20 | 0.20 | 92 | 1015.4 |
| 20260831014004 | 73 | 280 | 0.0 | 1.0 | 0.00 | 0.20 | 0.20 | 92 | 1015.3 |
| 20260831013504 | 73 | 280 | 0.0 | 0.0 | 0.00 | 0.20 | 0.20 | 92 | 1015.2 |
| 20260831013004 | 73 | 280 | 0.0 | 0.0 | 0.00 | 0.20 | 0.20 | 92 | 1015.3 |
| 20260831012504 | 73 | 280 | 0.0 | 1.0 | 0.00 | 0.20 | 0.20 | 92 | 1015.3 |
| 20260831012004 | 73 | 280 | 0.0 | 1.0 | 0.00 | 0.20 | 0.20 | 92 | 1015.3 |
| 20260831011503 | 73 | 280 | 0.0 | 0.0 | 0.00 | 0.20 | 0.20 | 92 | 1015.1 |
| 20260831011004 | 73 | 280 | 0.0 | 1.0 | 0.00 | 0.20 | 0.20 | 92 | 1015.2 |
| 20260831010503 | 73 | 280 | 0.0 | 1.0 | 0.00 | 0.20 | 0.20 | 92 | 1015.2 |
| 20260831010007 | 73 | 280 | 0.0 | 0.0 | 0.00 | 0.20 | 0.20 | 92 | 1015.0 |
| 20260831005504 | 73 | 280 | 0.0 | 0.0 | 0.00 | 0.20 | 0.20 | 92 | 1014.9 |
| 20260831005005 | 73 | 280 | 0.0 | 0.0 | 0.00 | 0.20 | 0.20 | 92 | 1014.9 |
| 20260831004504 | 73 | 280 | 0.0 | 0.0 | 0.00 | 0.20 | 0.20 | 92 | 1014.8 |
| 20260831004007 | 73 | 280 | 0.0 | 0.0 | 0.00 | 0.20 | 0.20 | 92 | 1014.7 |
| 20260831003503 | 73 | 280 | 0.0 | 0.0 | 0.00 | 0.20 | 0.20 | 92 | 1014.6 |
| 20260831003005 | 73 | 280 | 0.0 | 0.0 | 0.00 | 0.20 | 0.20 | 92 | 1014.6 |
| 20260831002503 | 73 | 280 | 0.0 | 0.0 | 0.00 | 0.20 | 0.20 | 92 | 1014.7 |
| 20260831002005 | 73 | 280 | 0.0 | 0.0 | 0.01 | 0.20 | 0.20 | 92 | 1014.8 |
| 20260831001504 | 73 | 280 | 0.0 | 0.0 | 0.01 | 0.20 | 0.20 | 92 | 1015.1 |
| 20260831001004 | 73 | 280 | 0.0 | 0.0 | 0.01 | 0.20 | 0.20 | 92 | 1015.2 |
| 20260831000504 | 73 | 280 | 0.0 | 0.0 | 0.01 | 0.20 | 0.20 | 92 | 1015.4 |
| 20260831000005 | 73 | 280 | 0.0 | 0.0 | 0.01 | 0.20 | 0.20 | 92 | 1015.0 |
| 20260830235504 | 73 | 280 | 0.0 | 0.0 | 0.01 | 0.20 | 0.20 | 92 | 1015.2 |
| 20260830235004 | 73 | 280 | 0.0 | 0.0 | 0.01 | 0.20 | 0.20 | 92 | 1015.3 |
| 20260830234504 | 73 | 280 | 0.0 | 0.0 | 0.01 | 0.20 | 0.20 | 91 | 1015.2 |
| 20260830234004 | 73 | 280 | 0.0 | 0.0 | 0.01 | 0.20 | 0.20 | 91 | 1015.3 |
| 20260830233503 | 73 | 280 | 0.0 | 0.0 | 0.01 | 0.20 | 0.20 | 91 | 1015.5 |
| 20260830233004 | 73 | 280 | 0.0 | 0.0 | 0.01 | 0.20 | 0.20 | 91 | 1015.5 |
| 20260830232004 | 73 | 280 | 0.0 | 0.0 | 0.00 | 0.19 | 0.19 | 91 | 1015.3 |
| 20260830231504 | 73 | 280 | 0.0 | 0.0 | 0.01 | 0.19 | 0.19 | 91 | 1015.2 |
| 20260830231003 | 73 | 280 | 0.0 | 0.0 | 0.01 | 0.19 | 0.19 | 91 | 1015.3 |
| 20260830230503 | 73 | 280 | 0.0 | 0.0 | 0.01 | 0.19 | 0.19 | 91 | 1015.3 |
| 20260830230007 | 73 | 280 | 0.0 | 0.0 | 0.01 | 0.19 | 0.19 | 91 | 1015.4 |
| 20260830225503 | 73 | 280 | 0.0 | 0.0 | 0.01 | 0.19 | 0.19 | 90 | 1015.5 |
| 20260830225004 | 73 | 280 | 0.0 | 0.0 | 0.01 | 0.19 | 0.19 | 90 | 1015.7 |
| 20260830224504 | 73 | 280 | 0.0 | 0.0 | 0.01 | 0.19 | 0.19 | 91 | 1016.0 |
| 20260830224004 | 73 | 280 | 0.0 | 0.0 | 0.01 | 0.19 | 0.19 | 91 | 1015.8 |
| 20260830223503 | 73 | 280 | 0.0 | 0.0 | 0.01 | 0.19 | 0.19 | 91 | 1015.9 |
| 20260830223004 | 73 | 280 | 0.0 | 0.0 | 0.01 | 0.19 | 0.19 | 91 | 1015.9 |
| 20260830222004 | 73 | 280 | 0.0 | 0.0 | 0.01 | 0.19 | 0.19 | 90 | 1015.5 |
| 20260830221004 | 73 | 280 | 0.0 | 0.0 | 0.00 | 0.18 | 0.18 | 90 | 1015.8 |
| 20260830220503 | 73 | 280 | 0.0 | 0.0 | 0.00 | 0.18 | 0.18 | 89 | 1015.5 |
| 20260830220009 | 73 | 280 | 0.0 | 0.0 | 0.00 | 0.18 | 0.18 | 89 | 1015.5 |
| 20260830215503 | 73 | 280 | 0.0 | 0.0 | 0.00 | 0.18 | 0.18 | 89 | 1015.4 |
| 20260830214504 | 73 | 280 | 0.0 | 0.0 | 0.00 | 0.18 | 0.18 | 88 | 1015.5 |
| 20260830214006 | 73 | 280 | 0.0 | 0.0 | 0.01 | 0.18 | 0.18 | 88 | 1015.7 |
| 20260830213504 | 73 | 280 | 0.0 | 0.0 | 0.01 | 0.18 | 0.18 | 88 | 1015.7 |
| 20260830213004 | 73 | 280 | 0.0 | 0.0 | 0.01 | 0.18 | 0.18 | 88 | 1015.7 |
| 20260830212504 | 73 | 280 | 0.0 | 0.0 | 0.01 | 0.18 | 0.18 | 88 | 1015.8 |
| 20260830212004 | 73 | 280 | 0.0 | 0.0 | 0.01 | 0.18 | 0.18 | 88 | 1015.6 |
| 20260830211004 | 73 | 280 | 0.0 | 1.0 | 0.02 | 0.18 | 0.18 | 89 | 1015.8 |
| 20260830210009 | 74 | 280 | 0.0 | 0.0 | 0.03 | 0.18 | 0.18 | 89 | 1015.8 |
| 20260830205503 | 74 | 280 | 0.0 | 0.0 | 0.03 | 0.18 | 0.18 | 89 | 1015.8 |
| 20260830205004 | 74 | 280 | 0.0 | 0.0 | 0.03 | 0.18 | 0.18 | 88 | 1015.7 |
| 20260830204504 | 74 | 280 | 0.0 | 0.0 | 0.04 | 0.18 | 0.18 | 88 | 1015.6 |
| 20260830204005 | 74 | 280 | 0.0 | 0.0 | 0.03 | 0.17 | 0.17 | 89 | 1015.6 |
| 20260830203504 | 74 | 280 | 0.0 | 0.0 | 0.03 | 0.17 | 0.17 | 88 | 1015.7 |
| 20260830203004 | 74 | 280 | 0.0 | 0.0 | 0.03 | 0.17 | 0.17 | 88 | 1015.7 |
| 20260830202503 | 74 | 280 | 0.0 | 0.0 | 0.04 | 0.17 | 0.17 | 88 | 1015.6 |
| 20260830201004 | 74 | 280 | 0.0 | 1.0 | 0.08 | 0.16 | 0.16 | 86 | 1015.7 |
| 20260830200004 | 74 | 280 | 0.0 | 3.0 | 0.07 | 0.15 | 0.15 | 86 | 1015.8 |
| 20260830195503 | 74 | 260 | 0.0 | 3.0 | 0.07 | 0.15 | 0.15 | 86 | 1015.8 |
| 20260830195004 | 74 | 247 | 0.0 | 3.0 | 0.07 | 0.15 | 0.15 | 87 | 1015.8 |
| 20260830194004 | 75 | 275 | 0.0 | 0.0 | 0.06 | 0.14 | 0.14 | 86 | 1016.0 |
| 20260830193503 | 75 | 275 | 0.0 | 0.0 | 0.06 | 0.14 | 0.14 | 85 | 1015.9 |
| 20260830193004 | 75 | 275 | 0.0 | 0.0 | 0.06 | 0.14 | 0.14 | 83 | 1015.8 |
| 20260830192004 | 77 | 275 | 0.0 | 3.0 | 0.05 | 0.13 | 0.13 | 80 | 1015.8 |
| 20260830191504 | 78 | 275 | 0.0 | 1.0 | 0.03 | 0.11 | 0.11 | 77 | 1015.8 |
| 20260830191006 | 79 | 275 | 0.0 | 3.0 | 0.00 | 0.08 | 0.08 | 75 | 1016.0 |
| 20260830190504 | 79 | 275 | 1.0 | 5.0 | 0.00 | 0.08 | 0.08 | 72 | 1015.9 |
| 20260830190006 | 80 | 275 | 1.0 | 5.0 | 0.00 | 0.08 | 0.08 | 70 | 1015.8 |
| 20260830185503 | 80 | 277 | 1.0 | 6.0 | 0.00 | 0.08 | 0.08 | 69 | 1015.6 |
| 20260830184004 | 81 | 292 | 1.0 | 8.0 | 0.00 | 0.08 | 0.08 | 65 | 1015.1 |
| 20260830183503 | 81 | 247 | 1.0 | 8.0 | 0.00 | 0.08 | 0.08 | 65 | 1014.9 |
| 20260830183005 | 81 | 106 | 1.0 | 8.0 | 0.00 | 0.08 | 0.08 | 64 | 1014.8 |
| 20260830182503 | 82 | 248 | 1.0 | 8.0 | 0.00 | 0.08 | 0.08 | 65 | 1014.6 |
| 20260830182004 | 82 | 254 | 1.0 | 8.0 | 0.00 | 0.08 | 0.08 | 63 | 1014.5 |
| 20260830181006 | 82 | 281 | 1.0 | 8.0 | 0.00 | 0.08 | 0.08 | 65 | 1014.4 |
| 20260830180503 | 81 | 271 | 1.0 | 8.0 | 0.00 | 0.08 | 0.08 | 66 | 1014.5 |
| 20260830180009 | 81 | 178 | 1.0 | 8.0 | 0.00 | 0.08 | 0.08 | 66 | 1014.5 |
| 20260830175504 | 80 | 153 | 1.0 | 7.0 | 0.00 | 0.08 | 0.08 | 68 | 1014.4 |
| 20260830175004 | 79 | 234 | 1.0 | 7.0 | 0.00 | 0.08 | 0.08 | 67 | 1014.6 |
| 20260830174503 | 79 | 277 | 1.0 | 5.0 | 0.00 | 0.08 | 0.08 | 67 | 1014.7 |
| 20260830174004 | 79 | 269 | 1.0 | 8.0 | 0.00 | 0.08 | 0.08 | 67 | 1014.8 |
| 20260830173503 | 79 | 254 | 2.0 | 8.0 | 0.00 | 0.08 | 0.08 | 65 | 1014.8 |
| 20260830173004 | 80 | 253 | 2.0 | 8.0 | 0.00 | 0.08 | 0.08 | 65 | 1015.0 |
| 20260830172007 | 80 | 290 | 2.0 | 7.0 | 0.00 | 0.08 | 0.08 | 65 | 1015.1 |
| 20260830171504 | 80 | 246 | 1.0 | 6.0 | 0.00 | 0.08 | 0.08 | 65 | 1015.2 |
| 20260830171007 | 79 | 159 | 1.0 | 5.0 | 0.00 | 0.08 | 0.08 | 67 | 1015.2 |
| 20260830165504 | 78 | 277 | 1.0 | 8.0 | 0.00 | 0.08 | 0.08 | 69 | 1014.9 |
| 20260830165007 | 77 | 271 | 1.0 | 7.0 | 0.00 | 0.08 | 0.08 | 70 | 1014.9 |
| 20260830164503 | 77 | 42 | 1.0 | 7.0 | 0.00 | 0.08 | 0.08 | 70 | 1014.9 |
| 20260830164004 | 77 | 237 | 1.0 | 7.0 | 0.00 | 0.08 | 0.08 | 70 | 1015.0 |
| 20260830163505 | 77 | 286 | 1.0 | 5.0 | 0.00 | 0.08 | 0.08 | 69 | 1015.0 |
| 20260830163005 | 77 | 84 | 1.0 | 7.0 | 0.00 | 0.08 | 0.08 | 69 | 1014.9 |
| 20260830161504 | 77 | 217 | 1.0 | 3.0 | 0.00 | 0.08 | 0.08 | 72 | 1014.9 |
| 20260830161005 | 77 | 240 | 1.0 | 8.0 | 0.00 | 0.08 | 0.08 | 72 | 1014.9 |
| 20260830160504 | 77 | 219 | 0.0 | 8.0 | 0.00 | 0.08 | 0.08 | 71 | 1015.0 |
| 20260830160007 | 76 | 259 | 0.0 | 4.0 | 0.00 | 0.08 | 0.08 | 73 | 1015.0 |
| 20260830155506 | 76 | 269 | 0.0 | 3.0 | 0.00 | 0.08 | 0.08 | 75 | 1015.0 |
| 20260830155007 | 76 | 140 | 0.0 | 2.0 | 0.00 | 0.08 | 0.08 | 76 | 1015.0 |
| 20260830154503 | 75 | 260 | 0.0 | 2.0 | 0.00 | 0.08 | 0.08 | 77 | 1015.0 |
| 20260830154004 | 75 | 271 | 0.0 | 5.0 | 0.00 | 0.08 | 0.08 | 77 | 1015.0 |
| 20260830153503 | 74 | 274 | 0.0 | 5.0 | 0.00 | 0.08 | 0.08 | 77 | 1014.9 |
| 20260830153004 | 74 | 263 | 0.0 | 5.0 | 0.00 | 0.08 | 0.08 | 78 | 1015.1 |
| 20260830152007 | 74 | 258 | 0.0 | 1.0 | 0.00 | 0.08 | 0.08 | 81 | 1014.9 |
| 20260830151505 | 74 | 257 | 0.0 | 1.0 | 0.00 | 0.08 | 0.08 | 79 | 1014.6 |
| 20260830151003 | 73 | 253 | 0.0 | 2.0 | 0.00 | 0.08 | 0.08 | 81 | 1014.6 |
| 20260830150504 | 73 | 205 | 0.0 | 7.0 | 0.00 | 0.08 | 0.08 | 82 | 1014.6 |
| 20260830150004 | 72 | 279 | 0.0 | 7.0 | 0.00 | 0.08 | 0.08 | 83 | 1014.6 |
| 20260830145503 | 72 | 257 | 0.0 | 3.0 | 0.00 | 0.08 | 0.08 | 83 | 1014.9 |
| 20260830144503 | 70 | 298 | 0.0 | 4.0 | 0.00 | 0.08 | 0.08 | 87 | 1014.9 |
| 20260830144004 | 70 | 260 | 0.0 | 4.0 | 0.00 | 0.08 | 0.08 | 87 | 1015.2 |
| 20260830143503 | 69 | 286 | 0.0 | 1.0 | 0.00 | 0.08 | 0.08 | 87 | 1015.2 |
| 20260830142504 | 69 | 279 | 0.0 | 1.0 | 0.00 | 0.08 | 0.08 | 88 | 1015.3 |
| 20260830142004 | 69 | 279 | 0.0 | 3.0 | 0.00 | 0.08 | 0.08 | 88 | 1015.4 |
| 20260830141004 | 69 | 258 | 0.0 | 1.0 | 0.01 | 0.08 | 0.08 | 89 | 1015.3 |
| 20260830140503 | 68 | 270 | 0.0 | 2.0 | 0.02 | 0.08 | 0.08 | 89 | 1015.3 |
| 20260830140003 | 68 | 273 | 0.0 | 2.0 | 0.03 | 0.08 | 0.08 | 90 | 1015.4 |
| 20260830135004 | 68 | 275 | 0.0 | 0.0 | 0.03 | 0.08 | 0.08 | 90 | 1015.4 |
| 20260830134500 | 68 | 275 | 0.0 | 0.0 | 0.03 | 0.08 | 0.08 | 90 | 1015.4 |
| 20260830134004 | 68 | 275 | 0.0 | 0.0 | 0.03 | 0.08 | 0.08 | 91 | 1015.6 |
| 20260830133504 | 67 | 275 | 0.0 | 0.0 | 0.04 | 0.08 | 0.08 | 91 | 1015.5 |
| 20260830133003 | 67 | 275 | 0.0 | 0.0 | 0.04 | 0.08 | 0.08 | 91 | 1015.8 |
| 20260830132500 | 67 | 275 | 0.0 | 0.0 | 0.05 | 0.08 | 0.08 | 91 | 1015.8 |
| 20260830132004 | 67 | 275 | 0.0 | 0.0 | 0.05 | 0.08 | 0.08 | 91 | 1015.9 |
| 20260830131504 | 67 | 275 | 0.0 | 1.0 | 0.06 | 0.08 | 0.08 | 90 | 1016.2 |
| 20260830131006 | 67 | 275 | 0.0 | 1.0 | 0.05 | 0.07 | 0.07 | 90 | 1016.2 |
| 20260830130500 | 67 | 275 | 0.0 | 0.0 | 0.04 | 0.06 | 0.06 | 90 | 1016.1 |
| 20260830130008 | 67 | 275 | 0.0 | 2.0 | 0.04 | 0.05 | 0.05 | 90 | 1016.4 |
| 20260830125504 | 67 | 275 | 0.0 | 2.0 | 0.04 | 0.05 | 0.05 | 90 | 1016.6 |
| 20260830125004 | 67 | 271 | 0.0 | 0.0 | 0.05 | 0.05 | 0.05 | 89 | 1016.6 |
| 20260830124504 | 67 | 271 | 0.0 | 0.0 | 0.05 | 0.05 | 0.05 | 89 | 1016.7 |
| 20260830124004 | 67 | 271 | 0.0 | 1.0 | 0.05 | 0.05 | 0.05 | 89 | 1016.8 |
| 20260830123502 | 68 | 271 | 0.0 | 1.0 | 0.04 | 0.04 | 0.04 | 88 | 1016.9 |
| 20260830123006 | 68 | 271 | 0.0 | 0.0 | 0.04 | 0.04 | 0.04 | 88 | 1016.8 |
| 20260830122505 | 68 | 271 | 0.0 | 0.0 | 0.03 | 0.03 | 0.03 | 87 | 1016.8 |
| 20260830122004 | 68 | 271 | 0.0 | 0.0 | 0.03 | 0.03 | 0.03 | 87 | 1016.7 |
| 20260830121006 | 68 | 271 | 0.0 | 0.0 | 0.02 | 0.02 | 0.02 | 86 | 1016.6 |
| 20260830120505 | 69 | 271 | 0.0 | 0.0 | 0.02 | 0.02 | 0.02 | 85 | 1016.6 |
| 20260830120008 | 69 | 271 | 0.0 | 2.0 | 0.01 | 0.01 | 0.01 | 84 | 1016.5 |
| 20260830115004 | 70 | 328 | 0.0 | 3.0 | 0.00 | 0.00 | 0.00 | 82 | 1016.1 |
| 20260830114504 | 70 | 329 | 0.0 | 3.0 | 0.00 | 0.00 | 0.00 | 81 | 1016.0 |
| 20260830114004 | 70 | 262 | 0.0 | 3.0 | 0.00 | 0.00 | 0.00 | 80 | 1015.9 |
| 20260830113004 | 70 | 258 | 0.0 | 4.0 | 0.00 | 0.00 | 0.00 | 79 | 1015.7 |
| 20260830112503 | 70 | 288 | 0.0 | 1.0 | 0.00 | 0.00 | 0.00 | 79 | 1015.8 |